STARLINK-36128

Last updated on Mon Dec 15 2025 00:02:12 GMT+0000 (Coordinated Universal Time)

1 66873U 25281AB 25348.25003472 -.01537177 00000+0 -64257-2 0 9991 2 66873 43.0000 112.8451 0001490 265.3684 332.1722 15.87275166 1671
UTC large
Height (km)
Speed (km/s)
/
Latitude / Longitude
Inclination (degrees)
Orbital Period (minutes)
Azimuth
Elevation
Range (km)
Doppler Factor

Next 0 passes for location: London (51.5072 / 0.1276)

Sorry there are no passes over London.